Regional Weather Roundup
Issued by NWS Lake Charles, LA

Home | Current Version | Previous Version | Text Only | Print | Product List | Glossary On
Versions: 1 2 3 4 5 6 7 8 9 10 11 12 13 14 15 16 17 18 19 20 21 22 23 24 25 26 27
000
ASUS44 KLCH 231710
RWRLCH
REGIONAL WEATHER ROUNDUP
NATIONAL WEATHER SERVICE LAKE CHARLES LA
1200 PM CDT THU MAR 23 2017

Note: "fair" indicates few or no clouds below 12,000 feet with no
significant weather and/or obstructions to visibility.


ACROSS SOUTHEAST TEXAS

CITY           SKY/WX    TMP DP  RH WIND       PRES   REMARKS
BEAUMONT       SUNNY     80  62  54 S12       30.18S
BEAUMONT CITY  FAIR     N/A N/A N/A S6        30.18F
ORANGE         SUNNY     77  65  65 S8        30.21S
JASPER           N/A     78  62  58 S6        30.20F
$$

ACROSS CENTRAL LOUISIANA

CITY           SKY/WX    TMP DP  RH WIND       PRES   REMARKS
LEESVILLE      SUNNY     77  59  53 S6        30.18F
FULLERTON      FAIR      79  59  50 VRB3      30.16F
ALEXANDRIA INT SUNNY     74  61  63 E6        30.18F
ESLER FIELD    SUNNY     77  62  59 VRB5      30.19F
DERIDDER       FAIR      77  55  46 S7        30.20F
OAKDALE        SUNNY     75  60  60 S5        30.20F
OPELOUSAS      FAIR      77  62  58 MISG      30.20S
$$

ACROSS SOUTHWEST AND SOUTH CENTRAL LOUISIANA

CITY           SKY/WX    TMP DP  RH WIND       PRES   REMARKS
SULPHUR        MOSUNNY   80  55  41 SE10      30.20S
LAKE CHARLES   MOSUNNY   79  63  57 S10G18    30.19F
CHENNAULT INT  MOSUNNY   72  64  78 E8        30.20F
CAMERON PHI    MOSUNNY   73  68  83 SE9       30.20R
DEQUINCY       FAIR      76  62  61 SE7       30.19F
JENNINGS       FAIR      74  63  70 CALM      30.21S
LAFAYETTE      SUNNY     81  65  58 CALM      30.20S
NEW IBERIA     SUNNY     80  61  52 SE7       30.21S
ABBEVILLE      FAIR      77  64  65 CALM      30.21S
PATTERSON      SUNNY     79  63  57 E7        30.21S
SALT POINT       N/A     69  64  84 VRB3      30.20S
$$

SELECTED SITES ACROSS THE REGION

CITY           SKY/WX    TMP DP  RH WIND       PRES   REMARKS
HOUSTON BUSH   MOSUNNY   80  61  52 S13       30.16F
HOUSTON HOBBY  MOSUNNY   80  62  54 S13       30.16S
GALVESTON      SUNNY     76  68  76 S13       30.19S
COLLEGE STAT   SUNNY     79  61  53 S20       30.11F
CONROE         SUNNY     79  60  52 S16G22    30.15F
HUNTSVILLE     SUNNY     78  59  51 S14G20    30.14F
LUFKIN         SUNNY     77  61  57 S12       30.16F
SHREVEPORT     MOSUNNY   76  60  57 S8G18     30.15F
MONROE         SUNNY     78  58  49 VRB6      30.20F
NATCHEZ MS     SUNNY     77  55  47 SE7       30.21F
BATON ROUGE    SUNNY     79  60  52 VRB6      30.21F
N.O. INTL ARPT MOSUNNY   80  60  50 SE13      30.21F
SLIDELL        SUNNY     79  55  43 SE13      30.22F
$$

MARINE REPORTS

STATION/POSITION TIME  SKY/WX   TEMP    WIND        PRES    VSBY
                                AIR SEA DIR/SP/G
                 (UTC)          (F)     (DEG/KT/KT) (MB)    (MI)
BUOY 30 S HIGH I 1650            71 73  160/ 10/ 12 1022.1F
WVE H/P(F/S)=  2/ 6

SEA RIM ST PARK  1600            72     180/ 10/ 12 1023.0R
PORT ARTHUR      1648               71  200/  7/ 11 1022.5S
SABINE PASS N    1648            74 75  180/  9/ 12 1023.8S
TEXAS POINT      NOT AVBL
CALCASIEU PASS   1648            72 73  160/  6/  9   N/A
LK CHARLES BEACH 1648            75 72              1023.0F
MARSH ISLAND     1600            70                   N/A
FRESH WATER LOCK 1648            72 71  140/  2/  6 1022.9F
AMERADA PASS     1648            75 58  100/  5/  7 1022.7F
$$




USA.gov is the U.S. government's official web portal to all federal, state and local government web resources and services.